• Join FlightAware (Why Join?)
  • Login
  • US Flag GB Flag 
05:36 EST


 

Airport Tracker/Info


-or-


 

Live Flight TrackerFlight Track Log ✈ UAL3776 ✈ 19-Apr-2013 ✈ KMIA - KIAD

Flight Track Log - Related Links

Times and Time Zones

All times are in EDT time to prevent confusion due to time zone crossing. See the UAL3776 flight status page for this flight to view local times or setup timezone preferences in your user account.

Time Position Orientation Groundspeed Altitude Reporting Facility
EDT Latitude Longitude Course Direction KTS MPH feet Rate Location/Type
11:40 25.7983 -80.2722 70° East 160 184 900  Level Miami Center
11:40 25.8050 -80.2517 70° East 180 207 1,600 1,737 Climbing Miami Center
11:41 25.8233 -80.1828 74° East 236 272 3,100 2,054 Climbing Miami Center
11:42 25.8803 -80.1544 24° Northeast 272 313 5,400 1,950 Climbing Miami Center
11:43 25.9503 -80.1981 331° Northwest 285 328 7,000 1,215 Climbing Miami Center
11:43 25.9667 -80.2100 327° Northwest 286 329 7,000 1,000 Level Miami Center
11:44 26.0161 -80.2461 327° Northwest 293 337 8,000 2,066 Climbing Miami Center
11:45 26.0325 -80.2603 322° Northwest 287 330 9,100 2,300 Climbing Miami Center
11:45 26.0714 -80.2914 324° Northwest 299 344 10,300 1,701 Climbing Miami Center
11:46 26.1103 -80.3297 318° Northwest 332 382 11,000 1,600 Climbing Miami Center
11:46 26.1450 -80.3539 328° Northwest 352 405 11,900 1,677 Climbing Miami Center
11:47 26.2228 -80.4208 322° Northwest 357 411 13,600 2,150 Climbing Miami Center
11:48 26.3219 -80.4725 335° Northwest 357 411 16,200 2,100 Climbing Miami Center
11:49 26.4147 -80.5172 337° Northwest 357 411 17,800 1,450 Climbing Miami Center
11:50 26.4994 -80.5569 337° Northwest 357 411 19,100 1,550 Climbing Miami Center
11:51 26.6089 -80.5997 341° North 370 426 20,900 1,500 Climbing Miami Center
11:52 26.7000 -80.6306 343° North 370 426 22,100 1,300 Climbing Miami Center
11:53 26.8117 -80.6761 340° North 383 441 23,500 1,400 Climbing Miami Center
11:54 26.9131 -80.7119 343° North 383 441 24,900 1,300 Climbing Miami Center
11:55 27.0164 -80.7503 342° North 383 441 26,100 1,008 Climbing Miami Center
11:56 27.1011 -80.7836 341° North 383 441 26,900 950 Climbing Miami Center
11:57 27.2250 -80.8297 342° North 383 441 28,000 893 Climbing Miami Center
11:58 27.3181 -80.8681 340° North 388 447 28,700 800 Climbing Miami Center
11:59 27.4317 -80.9072 343° North 398 458 29,600 850 Climbing Miami Center
12:00 27.5433 -80.9486 342° North 408 470 30,400 1,150 Climbing Miami Center
12:01 27.6547 -80.9900 342° North 415 478 31,900 1,250 Climbing Miami Center
12:02 27.7581 -81.0311 341° North 415 478 32,900 1,000 Climbing Miami Center
12:03 27.8631 -81.0728 341° North 402 463 33,900 1,000 Climbing Miami Center
12:04 27.9808 -81.1194 341° North 402 463 34,900 550 Climbing Miami Center
12:05 28.0881 -81.1586 342° North 402 463 35,000 50 Climbing Miami Center
12:06 28.1872 -81.1978 341° North 410 472 35,000  Level Miami Center
12:07 28.3006 -81.2422 341° North 421 484 35,000  Level Miami Center
12:08 28.4153 -81.2878 341° North 427 491 35,000  Level Jacksonville Center
12:09 28.5328 -81.3306 342° North 462 532 35,000  Level Jacksonville Center
12:10 28.6561 -81.3453 354° North 454 522 35,000  Level Jacksonville Center
12:11 28.7647 -81.3578 354° North 447 514 35,000  Level Jacksonville Center
12:12 28.8900 -81.3725 354° North 447 514 35,000  Level Jacksonville Center
12:13 29.0156 -81.3825 356° North 447 514 35,000  Level Jacksonville Center
12:15 29.1852 -81.3929 357° North  Level FlightAware Approximate
12:15 29.2642 -81.4094 357° North 447 514 35,000  Level Jacksonville Center
12:16 29.3917 -81.4194 356° North 447 514 35,000  Level Jacksonville Center
12:17 29.5253 -81.4319 355° North 442 509 35,000  Level Jacksonville Center
12:18 29.6528 -81.4444 355° North 447 514 35,000  Level Jacksonville Center
12:19 29.7783 -81.4569 355° North 447 514 35,000  Level Jacksonville Center
12:20 29.9036 -81.4694 355° North 447 514 35,000  Level Jacksonville Center
12:21 30.0311 -81.4794 356° North 447 514 35,000  Level Jacksonville Center
12:22 30.1586 -81.4919 355° North 447 514 35,000  Level Jacksonville Center
12:23 30.2861 -81.5047 355° North 452 520 35,000  Level Jacksonville Center
12:24 30.4156 -81.5028 North 452 520 35,000  Level Jacksonville Center
12:25 30.5469 -81.4936 North 457 526 35,000  Level Jacksonville Center
12:26 30.6783 -81.4819 North 457 526 35,000  Level Jacksonville Center
12:27 30.8078 -81.4728 North 463 533 35,000  Level Jacksonville Center
12:28 30.9369 -81.4611 North 463 533 35,000  Level Jacksonville Center
12:29 31.0664 -81.4422 North 463 533 35,000  Level Jacksonville Center
12:30 31.1908 -81.3747 25° Northeast 475 547 35,000  Level Jacksonville Center
12:31 31.3153 -81.3094 24° Northeast 482 555 35,000  Level Jacksonville Center
12:32 31.4375 -81.2392 26° Northeast 482 555 35,000  Level Jacksonville Center
12:33 31.5536 -81.1786 24° Northeast 487 560 35,000  Level Jacksonville Center
12:34 31.6903 -81.1006 26° Northeast 487 560 35,000  Level Jacksonville Center
12:35 31.8022 -81.0397 25° Northeast 487 560 35,000  Level Jacksonville Center
12:36 31.9408 -80.9608 26° Northeast 492 566 35,000  Level Jacksonville Center
12:37 32.0672 -80.8897 25° Northeast 497 572 35,000  Level Jacksonville Center
12:38 32.1811 -80.8283 25° Northeast 497 572 35,000  Level Jacksonville Center
12:39 32.3175 -80.7539 25° Northeast 497 572 35,000  Level Jacksonville Center
12:40 32.4436 -80.6819 26° Northeast 496 571 35,000  Level Jacksonville Center
12:41 32.5697 -80.6122 25° Northeast 496 571 35,000  Level Jacksonville Center
12:42 32.6772 -80.5528 25° Northeast 483 556 35,000  Level Jacksonville Center
12:43 32.8033 -80.4806 26° Northeast 483 556 35,000  Level Jacksonville Center
12:44 32.9272 -80.4103 25° Northeast 483 556 35,000  Level Jacksonville Center
12:45 33.0572 -80.3372 25° Northeast 490 564 35,000  Level Jacksonville Center
12:46 33.1872 -80.2642 25° Northeast 498 573 35,000  Level Jacksonville Center
12:47 33.3131 -80.1933 25° Northeast 505 581 35,000  Level Jacksonville Center
12:48 33.4367 -80.1222 26° Northeast 498 573 35,000 -400 Level Jacksonville Center
12:49 33.5622 -80.0486 26° Northeast 493 567 34,200 -900 Descending Jacksonville Center
12:50 33.6878 -79.9747 26° Northeast 498 573 33,200 -1,200 Descending Jacksonville Center
12:51 33.8156 -79.9031 25° Northeast 498 573 31,800 -1,150 Descending Jacksonville Center
12:52 33.9389 -79.8286 27° Northeast 498 573 30,900 -950 Descending Jacksonville Center
12:53 34.0644 -79.7542 26° Northeast 498 573 29,900 -950 Descending Jacksonville Center
12:54 34.1919 -79.6817 25° Northeast 498 573 29,000 -348 Descending Jacksonville Center
12:56 34.4083 -79.5692 23° Northeast 490 564 29,000  Level Washington Center
12:57 34.5358 -79.4972 25° Northeast 490 564 29,000  Level Washington Center
12:58 34.6653 -79.4300 23° Northeast 490 564 29,000  Level Washington Center
12:59 34.7967 -79.3631 23° Northeast 495 570 29,000  Level Washington Center
13:00 34.9239 -79.2981 23° Northeast 495 570 29,000  Level Washington Center
13:01 35.0478 -79.2072 31° Northeast 500 575 29,000 -150 Level Washington Center
13:02 35.1675 -79.1136 33° Northeast 505 581 28,700 -650 Descending Washington Center
13:03 35.2869 -79.0194 33° Northeast 510 587 27,700 -850 Descending Washington Center
13:04 35.4119 -78.9536 23° Northeast 499 574 27,000 -350 Descending Washington Center
13:05 35.5347 -78.8922 22° Northeast 481 554 27,000  Level Washington Center
13:06 35.6617 -78.8286 22° Northeast 476 548 27,000  Level Washington Center
13:07 35.7886 -78.7619 23° Northeast 482 555 27,000  Level Washington Center
13:08 35.9133 -78.6978 23° Northeast 482 555 27,000  Level Washington Center
13:09 36.0403 -78.6308 23° Northeast 482 555 27,000  Level Washington Center
13:10 36.1672 -78.5636 23° Northeast 482 555 27,000  Level Washington Center
13:11 36.2942 -78.4964 23° Northeast 482 555 27,000  Level Washington Center
13:12 36.4208 -78.4289 23° Northeast 482 555 27,000  Level Washington Center
13:13 36.5475 -78.3608 23° Northeast 482 555 27,000  Level Washington Center
13:14 36.6764 -78.2931 23° Northeast 482 555 27,000  Level Washington Center
13:15 36.7883 -78.2322 24° Northeast 482 555 27,000  Level Washington Center
13:16 36.9150 -78.1636 23° Northeast 487 560 27,000 -50 Level Washington Center
13:17 37.0458 -78.0925 23° Northeast 487 560 26,900 -900 Descending Washington Center
13:18 37.1725 -78.0211 24° Northeast 493 567 25,200 -1,450 Descending Washington Center
13:19 37.2886 -77.9594 23° Northeast 479 551 24,000 -1,500 Descending Washington Center
13:20 37.4022 -77.8978 23° Northeast 451 519 22,200 -1,000 Descending Washington Center
13:21 37.5142 -77.8356 24° Northeast 440 506 22,000 -1,050 Descending Washington Center
13:22 37.6258 -77.7708 25° Northeast 440 506 20,100 -2,050 Descending Washington Center
13:23 37.7333 -77.7108 24° Northeast 435 501 17,900 -2,250 Descending Washington Center
13:24 37.8386 -77.6481 25° Northeast 417 480 15,600 -2,050 Descending Washington Center
13:25 37.9397 -77.5875 25° Northeast 410 472 13,800 -1,800 Descending Washington Center
13:26 38.0344 -77.5347 24° Northeast 387 445 12,000 -1,800 Descending Washington Center
13:27 38.1272 -77.4817 24° Northeast 373 429 10,200 -950 Descending Washington Center
13:28 38.2133 -77.4283 26° Northeast 354 407 10,100 -550 Descending Washington Center
13:29 38.2997 -77.3775 25° Northeast 340 391 9,100 -1,150 Descending Washington Center
13:30 38.3875 -77.3586 10° North 329 379 7,800 -1,300 Descending Washington Center
13:31 38.4731 -77.3606 359° North 315 362 6,500 -1,250 Descending Washington Center
13:32 38.5583 -77.3653 358° North 310 357 5,300 -950 Descending Washington Center
13:33 38.6419 -77.3644 360° North 304 350 4,600 -839 Descending Washington Center
13:33 38.7000 -77.3667 358° North 304 350 4,000 -387 Descending Potomac TRACON
13:34 38.7833 -77.3500 North 309 356 4,000 -263 Level Potomac TRACON
13:35 38.8667 -77.3500 360° North 301 346 3,500 -526 Descending Potomac TRACON
13:36 38.9500 -77.3500 360° North 291 335 3,000 -250 Descending Potomac TRACON
13:37 39.0167 -77.3500 360° North 262 302 3,000  Level Potomac TRACON
13:38 39.0500 -77.3833 322° Northwest 194 223 3,000 -600 Level Potomac TRACON
13:39 39.0167 -77.4167 218° Southwest 158 182 1,800 -1,000 Descending Potomac TRACON
13:40 38.9833 -77.4333 201° Southwest 125 144 900 -818 Descending Potomac TRACON
13:42 38.9474 -77.4599 195° South  Level Estimated
13:49 38.9474 -77.4599 195° South  Level Estimated
13:50 38.9474 -77.4599 195° South  Level Estimated
13:51 38.9474 -77.4599 195° South  Level Estimated